This is the latest recevied weather packets stored in our database for station/object W8LMG. If no packets are shown the sender has not sent any weather packets the latest 10 day(s).
| Time | Temp. | Humidity | Pressure | Rain* | Wind** | Luminosity | Snow |
|---|---|---|---|---|---|---|---|
| 1777508807 | 12.78° C | 99% | 1010.9 hPa | 0 mm | - | 0 W/m² | - |
| 1777508504 | 12.78° C | 99% | 1011 hPa | 0 mm | - | 0 W/m² | - |
| 1777508202 | 12.78° C | 99% | 1010.9 hPa | 0 mm | - | 0 W/m² | - |
| 1777507898 | 12.78° C | 99% | 1011 hPa | 0 mm | - | 1 W/m² | - |
| 1777507595 | 13.33° C | 98% | 1010.9 hPa | 0 mm | - | 2 W/m² | - |
| 1777507292 | 13.33° C | 98% | 1010.9 hPa | 0 mm | - | 4 W/m² | - |
| 1777506989 | 13.89° C | 95% | 1010.7 hPa | 0 mm | - | 3 W/m² | - |
| 1777506686 | 14.44° C | 89% | 1010.5 hPa | 0 mm | - | 7 W/m² | - |
| 1777506383 | 14.44° C | 89% | 1010.7 hPa | 0 mm | - | 11 W/m² | - |
| 1777506079 | 14.44° C | 88% | 1010.5 hPa | 0 mm | - | 16 W/m² | - |
| 1777505774 | 14.44° C | 89% | 1010.5 hPa | 0 mm | - | 19 W/m² | - |
| 1777505472 | 14.44° C | 91% | 1010.5 hPa | 0 mm | - | 19 W/m² | - |
| 1777505168 | 14.44° C | 96% | 1010.4 hPa | 0 mm | - | 28 W/m² | - |
| 1777504865 | 14.44° C | 91% | 1010 hPa | 1.78 mm | - | 33 W/m² | - |
| 1777504562 | 15° C | 91% | 1009.9 hPa | 1.78 mm | - | 56 W/m² | - |
| 1777504258 | 15° C | 96% | 1010.1 hPa | 0 mm | - | 46 W/m² | - |
| 1777503954 | 15.56° C | 99% | 1009.6 hPa | 0 mm | - | 69 W/m² | - |
| 1777503650 | 15.56° C | 99% | 1009.1 hPa | 0 mm | - | 13 W/m² | - |
| 1777503347 | 15.56° C | 99% | 1008.9 hPa | 0 mm | - | 35 W/m² | - |
| 1777503043 | 15.56° C | 99% | 1009 hPa | 0 mm | - | 32 W/m² | - |
| 1777502741 | 15.56° C | 99% | 1008.9 hPa | 0 mm | - | 54 W/m² | - |
| 1777502437 | 15.56° C | 99% | 1008.7 hPa | 0 mm | - | 88 W/m² | - |
| 1777502134 | 15.56° C | 99% | 1008.6 hPa | 0 mm | - | 93 W/m² | - |
| 1777501832 | 15.56° C | 99% | 1008.5 hPa | 1.78 mm | - | 125 W/m² | - |
| 1777501529 | 15.56° C | 99% | 1008.6 hPa | 21.59 mm | - | 117 W/m² | - |
* Rain latest hour (hover to see other rain measurements)
** Current wind speed in m/s (hover to see current wind gust speed)